[[{"header":{"parameterUnit":"m.s-1","parameterCategory":1,"la1":30.2991,"la2":30.254,"lo1":-89.0895,"lo2":-89.0444,"dy":0.0017,"dx":0.0017,"nx":28,"ny":28,"refTime":"2025-11-15T09:00:00:Z","depth":0,"parameterNumber":2,"parameterNumberName":"U-component_of_WINDS"},"data":[0,0,0,0,0,0,0,0,0,0,0,0,0,0,0,0,0,0,0,0,0,0,0,0,0,0,0,0,0,0,0,0,0,0,0,0,0,0,0,0,0,0,0,0,0,0,0,0,0,0,0,0,0,0,0,0,0,0,0.9823,0.9824,0,0.9931,0.9932,0.9933,0.9947,0.9946,0.9945,0.9944,1.0055,1.0059,1.0063,0,0,0,0,0,0,0,0,0,0,0,0,0,0.9631,0.9634,0.9823,0.9825,0.9826,0.9931,0.9932,0.9934,0.9947,0.9946,0.9945,0.9943,1.0054,1.0059,1.0064,0,0,0,0,0,0,0,0,0,0,0,0,0,0.9724,0.9635,0.9823,0.9845,0.9848,0.993,0.9932,0.9934,0.9947,0.9946,0.9944,0.9943,1.0053,1.0058,1.0064,1.0132,0,0,1.0082,1.0085,0,0,0,0,0,0,0,0,0.9719,0.9731,0.9841,0.9844,0.9847,0.9924,0.9905,1.0,0.9948,0.991,0.9944,0.9942,1.0013,1.0022,1.0046,1.0137,1.0142,1.0083,1.0086,1.0089,1.0091,0,0,0,0,0,0,0,0.9712,0.9726,0.9866,0.9842,0.9846,0.985,0.9862,0.9923,0.9969,0.9913,0.9914,0.9927,1.0015,1.004,1.0048,1.0144,1.0083,1.0088,1.0091,1.0094,1.0296,1.0298,0,0,0,0,0,0,0.9701,0.9721,0.9862,0.9869,0.9778,0.9855,0.9868,0.9901,0.9968,0.9977,0.9928,0.9927,1.0031,1.0042,1.0052,1.0136,1.0089,1.0094,1.0098,1.0294,1.0297,1.0299,0,0,0,0,0,0,0.9697,0.9714,0.9858,0.9795,0.9814,0.986,0.9897,0.9904,0.9929,0.998,0.9988,0.9945,1.003,1.0044,1.0112,1.014,1.0097,1.0102,1.0292,1.0295,1.0298,1.0304,0,0,0,0,0,0,0.9692,0.9712,0.9738,0.9796,0.9817,0.9915,0.9899,0.9907,0.9939,0.9939,0.9998,1.0006,1.003,1.0103,1.0118,1.0148,1.0107,1.029,1.0294,1.0297,1.0302,1.0307,1.0311,0,0,0,0,0,0.9685,0.9736,0.9739,0.9756,0.9851,0.9917,0.9929,0.9955,0.9941,0.9968,1.0,1.0005,1.0135,1.011,1.0127,1.0159,1.0288,1.0293,1.0297,1.0299,1.0306,1.0311,0,0,0,0,0,0,0.9681,0.9744,0.9748,0.982,0.9863,0.9919,0.9953,0.9961,1.0009,1.0006,1.0036,1.0049,1.0116,1.0144,1.0115,1.0228,1.021,1.0218,1.0207,1.0213,1.0218,1.021,1.0112,0,0,0,0,0,0.9688,0.9736,0.9789,0.9847,0.9868,0.9907,0.9937,0.9953,0.9999,1.0017,1.0055,1.0099,1.0151,1.0184,1.0233,1.0306,1.0319,1.0336,1.0341,1.0345,1.0351,1.0391,1.0399,1.0312,1.0312,1.0312,0,0,0.9704,0.9745,0.9773,0.9847,0.9883,0.9932,0.9922,0.9975,1.0013,1.0026,1.0092,1.0121,1.0173,1.0243,1.0276,1.0269,1.0378,1.035,1.0352,1.0357,1.0396,1.0405,1.0412,1.0315,1.0314,1.0314,0,0,0.9758,0.9794,0.9846,0.9881,0.9934,0.996,0.9972,1.0028,1.0047,1.0114,1.0125,1.017,1.0257,1.0294,1.0324,1.0392,1.0398,1.0408,1.0433,1.0472,1.0479,1.0485,1.0509,1.0517,1.0414,1.0414,1.0414,0,0.9771,0.9846,0.9872,0.9924,0.9957,0.997,1.0023,1.0057,1.0124,1.0146,1.0137,1.0247,1.0283,1.0362,1.0378,1.0402,1.0418,1.0401,1.0475,1.0482,1.0488,1.0512,1.0521,1.0415,1.0415,1.0414,1.0414,0,0.9859,0.9911,0.9947,1.0011,1.0047,1.01,1.0134,1.0168,1.0181,1.0207,1.0275,1.0319,1.0378,1.0398,1.0411,1.0479,1.0473,1.0469,1.0452,1.0497,1.0519,1.0529,1.0416,1.0416,1.0415,1.0415,0,0,0.9914,0.9991,1.0004,1.0033,1.0093,1.0134,1.0187,1.0244,1.0273,1.0319,1.0364,1.0438,1.0435,1.0469,1.0486,1.0521,1.0572,1.0513,1.0515,1.0522,1.065,1.0652,1.0662,1.0576,1.0578,1.058,1.0645,0,0.9974,1.0069,1.0094,1.0175,1.0223,1.0237,1.0284,1.0326,1.0352,1.0397,1.0427,1.0478,1.047,1.0491,1.0526,1.0558,1.0598,1.0554,1.0619,1.0621,1.0605,1.0674,1.0676,1.0736,1.0654,1.0656,1.0657,0,1.0058,1.0105,1.019,1.0244,1.0265,1.0307,1.0361,1.0404,1.0452,1.0469,1.0507,1.0521,1.0578,1.0558,1.0637,1.0606,1.0635,1.0655,1.0658,1.0665,1.0641,1.0682,1.0756,1.0764,1.0671,1.067,1.0669,0,1.0088,1.0173,1.0235,1.026,1.0324,1.0353,1.0381,1.0428,1.0461,1.0509,1.053,1.0584,1.0614,1.0655,1.0684,1.0667,1.076,1.0743,1.0776,1.0775,1.0795,1.0793,1.0874,1.0814,1.0813,1.0813,1.0813,0,1.0153,1.0205,1.025,1.0288,1.0347,1.0375,1.0432,1.0461,1.0502,1.0547,1.0562,1.0604,1.0639,1.0686,1.0709,1.077,1.0784,1.0799,1.0804,1.0798,1.0795,1.0816,1.0813,1.0816,1.0815,1.0815,1.0814,0,1.0197,1.0229,1.0298,1.0353,1.0368,1.0409,1.0456,1.0494,1.0521,1.0577,1.0592,1.0634,1.069,1.0723,1.0793,1.0808,1.0877,1.088,1.086,1.0862,1.0893,1.089,1.099,1.1004,1.0935,1.0935,1.0936,0,1.0236,1.0276,1.0336,1.0366,1.0395,1.0444,1.0477,1.0507,1.0541,1.0599,1.063,1.0686,1.0733,1.0821,1.0859,1.0912,1.0917,1.0949,1.0926,1.0917,1.0918,1.0915,1.0919,1.0952,1.0953,1.0954,1.0954,0,1.0302,1.0316,1.0363,1.0416,1.0455,1.0499,1.0542,1.0566,1.0604,1.0641,1.0698,1.0734,1.0806,1.0861,1.0918,1.0948,1.0958,1.0961,1.0972,1.0964,1.0951,1.0958,1.087,1.0959,1.0958,1.0958,1.0957,1.0957,1.0344,1.038,1.0428,1.048,1.0516,1.0556,1.0594,1.0626,1.0673,1.0733,1.0748,1.0808,1.0855,1.0933,1.0964,1.1011,1.1006,1.1021,1.1025,1.1028,1.1029,1.0944,1.1022,1.1022,1.1022,1.1022,1.1022,0,1.041,1.0442,1.0489,1.0549,1.059,1.0595,1.0643,1.0678,1.0729,1.0773,1.0818,1.0884,1.0938,1.098,1.1036,1.1065,1.1071,1.1079,1.1077,1.1084,1.1031,1.1016,1.1074,1.1074,1.1073,1.1073,1.1073,1.1073,1.045,1.0511,1.0531,1.061,1.0641,1.0699,1.0726,1.0763,1.0798,1.087,1.0915,1.0942,1.0985,1.1044,1.1094,1.1105,1.1125,1.1132,1.1144,1.1093,1.1087,1.1082,1.1068,1.1136,1.1136,1.1193,1.1193,1.1194]},{"header":{"parameterUnit":"m.s-1","parameterCategory":1,"la1":30.2991,"la2":30.254,"lo1":-89.0895,"lo2":-89.0444,"dy":0.0017,"dx":0.0017,"nx":28,"ny":28,"refTime":"2025-11-15T09:00:00:Z","depth":0,"parameterNumber":3,"parameterNumberName":"V-component_of_WINDS"},"data":[0,0,0,0,0,0,0,0,0,0,0,0,0,0,0,0,0,0,0,0,0,0,0,0,0,0,0,0,0,0,0,0,0,0,0,0,0,0,0,0,0,0,0,0,0,0,0,0,0,0,0,0,0,0,0,0,0,0,1.3043,1.3042,0,1.2994,1.2993,1.2992,1.2938,1.2937,1.2936,1.2935,1.2882,1.2881,1.2881,0,0,0,0,0,0,0,0,0,0,0,0,0,1.3087,1.3086,1.3043,1.3042,1.3042,1.2994,1.2993,1.2992,1.2938,1.2937,1.2936,1.2935,1.2882,1.2881,1.2881,0,0,0,0,0,0,0,0,0,0,0,0,0,1.3056,1.3086,1.3043,1.3009,1.3005,1.2994,1.2993,1.2992,1.2938,1.2937,1.2936,1.2934,1.2882,1.2881,1.288,1.2898,0,0,1.2877,1.2877,0,0,0,0,0,0,0,0,1.3058,1.3054,1.3014,1.3011,1.3007,1.2971,1.2989,1.296,1.2938,1.2963,1.2935,1.2934,1.2912,1.2909,1.2902,1.2896,1.2893,1.2877,1.2877,1.2876,1.2876,0,0,0,0,0,0,0,1.306,1.3056,1.3023,1.3014,1.3009,1.2995,1.2989,1.2983,1.2945,1.2961,1.2957,1.2952,1.291,1.2903,1.29,1.2892,1.2877,1.2876,1.2876,1.2875,1.2897,1.2898,0,0,0,0,0,0,1.3067,1.3058,1.3025,1.3022,1.303,1.2995,1.2989,1.2983,1.2945,1.2938,1.2953,1.295,1.2905,1.2902,1.2898,1.2916,1.2876,1.2875,1.2875,1.2896,1.2897,1.2899,0,0,0,0,0,0,1.3069,1.3065,1.3027,1.3039,1.3033,1.2996,1.299,1.2983,1.2976,1.2939,1.2932,1.2953,1.2904,1.29,1.2899,1.2913,1.2875,1.2874,1.2895,1.2896,1.2898,1.2951,0,0,0,0,0,0,1.307,1.3066,1.3073,1.3039,1.3032,1.3029,1.2991,1.2983,1.2975,1.297,1.2937,1.2931,1.2903,1.29,1.2898,1.2911,1.2873,1.2893,1.2895,1.2897,1.2948,1.2955,1.296,0,0,0,0,0,1.3072,1.3089,1.3073,1.307,1.304,1.303,1.3026,1.2995,1.2976,1.2982,1.2959,1.2932,1.2912,1.2901,1.2897,1.291,1.2892,1.2895,1.2897,1.2945,1.2953,1.296,0,0,0,0,0,0,1.3124,1.3084,1.3066,1.3073,1.3056,1.3021,1.3027,1.3004,1.299,1.2986,1.2947,1.294,1.2944,1.2927,1.2915,1.2925,1.2898,1.29,1.2936,1.2943,1.2949,1.2953,1.2872,0,0,0,0,0,1.3137,1.3132,1.3097,1.3107,1.3099,1.3065,1.3059,1.3037,1.3016,1.3008,1.2984,1.2965,1.2954,1.2948,1.2936,1.2946,1.2937,1.2953,1.2959,1.2964,1.2966,1.2969,1.2976,1.2907,1.2907,1.2907,0,0,1.3162,1.314,1.3139,1.3117,1.31,1.3096,1.3059,1.3056,1.3052,1.3007,1.3005,1.2987,1.2962,1.2967,1.2967,1.2953,1.2983,1.2968,1.2972,1.2971,1.2973,1.2979,1.2985,1.2909,1.2909,1.2909,0,0,1.3206,1.3189,1.3195,1.318,1.3156,1.3133,1.3135,1.3103,1.309,1.3087,1.3054,1.3048,1.3031,1.3014,1.3004,1.3042,1.3016,1.3039,1.3071,1.3075,1.308,1.3084,1.3097,1.3103,1.3042,1.3042,1.3042,0,1.324,1.3233,1.3201,1.32,1.3191,1.3152,1.3157,1.3143,1.3116,1.311,1.3095,1.3072,1.3053,1.3053,1.3062,1.3055,1.3055,1.3042,1.3082,1.3086,1.309,1.3102,1.3107,1.3045,1.3044,1.3044,1.3044,0,1.3276,1.3272,1.3279,1.3255,1.3247,1.3249,1.3216,1.3212,1.319,1.3169,1.3166,1.3142,1.3124,1.3123,1.3101,1.3119,1.3111,1.3089,1.3061,1.31,1.311,1.3115,1.3049,1.3048,1.3047,1.3046,0,0,1.3351,1.331,1.3313,1.3301,1.3272,1.3267,1.3268,1.3252,1.3248,1.3231,1.3229,1.3216,1.3196,1.3184,1.316,1.3163,1.3194,1.3141,1.314,1.3151,1.3212,1.3228,1.3233,1.3178,1.3178,1.3179,1.3213,0,1.3389,1.3388,1.3359,1.3365,1.336,1.3323,1.3323,1.3305,1.3285,1.3277,1.3255,1.3246,1.322,1.3213,1.3214,1.319,1.3206,1.3187,1.3174,1.3174,1.3181,1.3239,1.3256,1.329,1.3217,1.3218,1.3218,0,1.3433,1.3419,1.3426,1.3397,1.3393,1.3394,1.3377,1.337,1.3348,1.3333,1.3321,1.3294,1.3291,1.3266,1.326,1.3249,1.3241,1.3229,1.3229,1.3226,1.3198,1.3237,1.33,1.3305,1.3225,1.3224,1.3224,0,1.3486,1.3469,1.3471,1.3462,1.3428,1.3429,1.3415,1.3392,1.3384,1.3369,1.3363,1.3348,1.3339,1.3327,1.3296,1.3281,1.3294,1.3266,1.3281,1.3282,1.3284,1.3285,1.3347,1.3282,1.3281,1.3281,1.3281,0,1.3531,1.3536,1.3494,1.3495,1.35,1.3466,1.3471,1.3453,1.3433,1.3429,1.3396,1.3393,1.3353,1.3345,1.3321,1.332,1.3316,1.3303,1.3297,1.3306,1.3308,1.33,1.3297,1.3283,1.3282,1.3282,1.3282,0,1.3591,1.3563,1.3562,1.353,1.3522,1.3527,1.3499,1.3498,1.3477,1.3472,1.3469,1.3435,1.3424,1.3393,1.3373,1.3357,1.3362,1.335,1.337,1.3365,1.3382,1.338,1.3441,1.3446,1.3379,1.3379,1.338,0,1.3621,1.3624,1.3593,1.3589,1.3576,1.3569,1.3561,1.3528,1.3521,1.3497,1.3498,1.3485,1.3472,1.3456,1.3428,1.3413,1.34,1.3422,1.3398,1.3407,1.34,1.34,1.3399,1.3428,1.3428,1.3429,1.343,0,1.3677,1.3663,1.3654,1.364,1.3631,1.3618,1.3603,1.3601,1.3564,1.3557,1.3546,1.3537,1.3517,1.3504,1.3484,1.3468,1.3443,1.3438,1.344,1.3449,1.346,1.3454,1.3384,1.3437,1.3436,1.3435,1.3435,1.3435,1.3722,1.3723,1.3702,1.3692,1.3678,1.3664,1.3662,1.3641,1.3631,1.3613,1.3594,1.3585,1.3563,1.3534,1.352,1.3511,1.3498,1.3502,1.3502,1.3504,1.3508,1.3463,1.3508,1.3507,1.3507,1.3507,1.3507,0,1.3776,1.3761,1.3752,1.3733,1.3725,1.3703,1.3685,1.368,1.3673,1.3655,1.3643,1.363,1.3617,1.3589,1.3573,1.3571,1.3559,1.3568,1.3568,1.3564,1.3521,1.352,1.3578,1.3578,1.3578,1.3578,1.3578,1.3578,1.3803,1.3804,1.3788,1.3781,1.3765,1.3756,1.3748,1.3735,1.3721,1.3708,1.3697,1.368,1.3657,1.3639,1.3626,1.3618,1.3613,1.3626,1.3614,1.3574,1.3567,1.3561,1.356,1.3625,1.3626,1.3658,1.3658,1.3658]}]]